This is the latest recevied weather packets stored in our database for station/object KM4RT-13. If no packets are shown the sender has not sent any weather packets the latest 10 day(s).
| Time | Temp. | Humidity | Pressure | Rain* | Wind** | Luminosity | Snow |
|---|---|---|---|---|---|---|---|
| 1777809352 | 6.67° C | 99% | 1019.2 hPa | 0 mm | - | 41 W/m² | - |
| 1777809049 | 6.67° C | 99% | 1019.2 hPa | 0 mm | - | 35 W/m² | - |
| 1777808747 | 6.11° C | 99% | 1019.1 hPa | 0 mm | - | 30 W/m² | - |
| 1777808443 | 6.11° C | 99% | 1018.8 hPa | 0 mm | - | 26 W/m² | - |
| 1777808141 | 5.56° C | 99% | 1018.8 hPa | 0 mm | - | 21 W/m² | - |
| 1777807839 | 5.56° C | 99% | 1018.7 hPa | 0 mm | - | 18 W/m² | - |
| 1777807537 | 5° C | 99% | 1018.6 hPa | 0 mm | - | 14 W/m² | - |
| 1777807233 | 5.56° C | 99% | 1018.6 hPa | 0 mm | - | 10 W/m² | - |
| 1777806930 | 5.56° C | 99% | 1018.4 hPa | 0 mm | - | 7 W/m² | - |
| 1777806626 | 5.56° C | 99% | 1018.3 hPa | 0 mm | - | 5 W/m² | - |
| 1777806322 | 5° C | 99% | 1018.3 hPa | 0 mm | - | 3 W/m² | - |
| 1777806019 | 5° C | 99% | 1018.6 hPa | 0 mm | - | 1 W/m² | - |
| 1777805715 | 4.44° C | 99% | 1018.2 hPa | 0 mm | - | 1 W/m² | - |
| 1777805414 | 4.44° C | 99% | 1018.5 hPa | 0 mm | - | 0 W/m² | - |
| 1777805112 | 5° C | 99% | 1018.4 hPa | 0 mm | - | 0 W/m² | - |
| 1777804809 | 5° C | 99% | 1018.4 hPa | 0 mm | - | 0 W/m² | - |
| 1777804506 | 5.56° C | 99% | 1018.3 hPa | 0 mm | - | 0 W/m² | - |
| 1777804204 | 5.56° C | 99% | 1018.3 hPa | 0 mm | - | 0 W/m² | - |
| 1777803901 | 5.56° C | 99% | 1018.3 hPa | 0 mm | - | 0 W/m² | - |
| 1777803596 | 5.56° C | 99% | 1018.3 hPa | 0 mm | - | 0 W/m² | - |
| 1777803294 | 5.56° C | 99% | 1018.2 hPa | 0 mm | - | 0 W/m² | - |
| 1777802990 | 6.11° C | 99% | 1018.4 hPa | 0 mm | - | 0 W/m² | - |
| 1777802688 | 5.56° C | 99% | 1018.4 hPa | 0 mm | - | 0 W/m² | - |
| 1777802386 | 5.56° C | 99% | 1018.2 hPa | 0 mm | - | 0 W/m² | - |
| 1777802084 | 5.56° C | 99% | 1018.3 hPa | 0 mm | - | 0 W/m² | - |
* Rain latest hour (hover to see other rain measurements)
** Current wind speed in m/s (hover to see current wind gust speed)